Hourly Data Report for June 06, 2021

SANIRAJAK AIRPORT
NUNAVUT
Current Station Operator: NAVCAN

68°46'33.000" N
81°14'33.000" W
9.10 m
2402354
71293
YUX

Download Data

Hourly Data (June 2021)
Hourly Data Report for June 6, 2021
TIME
LST
Temp Definition
°C
Dew Point Definition
°C
Rel Hum Definition
%
Precip. Amount Definition
mm

Wind Dir Definition
10's deg

Wind Spd Definition
km/h
Visibility Definition
km
Stn Press Definition
kPa
Hmdx Definition


Wind Chill Definition


Weather Definition


00:00 0.3 -0.3 96 0.0 2 18 16.1 100.40     LegendNANA
01:00 0.3 -0.3 96 0.0 2 18 16.1 100.44     LegendNANA
02:00 -0.1 -0.7 96 0.0 2 15 16.1 100.47   -5 LegendNANA
03:00 -0.8 -1.4 96 0.0 2 15 16.1 100.52   -5 LegendNANA
04:00 -0.7 -1.3 96 0.0 3 15 16.1 100.56   -5 LegendNANA
05:00 -0.3 -1.2 94 0.0 4 15 16.1 100.57   -5 LegendNANA
06:00 0.1 -0.9 93 0.0 6 11 16.1 100.62     LegendNANA
07:00 0.5 -0.8 91 0.0 4 11 16.1 100.65     LegendNANA
08:00 0.7 -0.5 92 0.0 4 13 16.1 100.70     LegendNANA
09:00 0.9 -0.6 90 0.0 7 9 16.1 100.71     LegendNANA
10:00 1.4 -0.2 89 0.0 6 13 12.9 100.73     LegendNANA
11:00 1.0 -0.3 91 0.0 4 11 16.1 100.79     LegendNANA
12:00 1.2 -0.3 90 0.0 7 9 16.1 100.81     LegendNANA
13:00 1.3 -0.2 90 0.0 7 15 16.1 100.87     LegendNANA
14:00 1.4 -0.2 89 0.0 7 11 16.1 100.92     LegendNANA
15:00 1.2 -0.4 89 0.0 9 15 16.1 100.94     LegendNANA
16:00 0.8 -0.4 92 0.0 10 13 9.7 100.94     Fog
17:00 0.5 -0.2 95 0.0 10 11 16.1 101.00     LegendNANA
18:00 0.5 -0.4 94 0.0 8 8 16.1 101.01     LegendNANA
19:00 0.7 -0.3 93 0.0 4 5 9.7 101.05     Fog
20:00 0.2 -0.4 96 0.0 4 11 16.1 101.06     LegendNANA
21:00 -0.2 -0.6 97 0.0 4 11 16.1 101.08   -4 LegendNANA
22:00 -0.2 -0.5 98 0.0 5 9 16.1 101.09   -3 LegendNANA
23:00 -0.2 -0.5 98 0.0 3 4 16.1 101.07   -1 LegendNANA

Notes on Data Quality.

Legend

  • E = Estimated
  • M = Missing
  • NA = Not Available*
  • [empty] = Indicates an unobserved value
Date modified: